Flag for Switzerland Weather past 2 weeks in Monthey, Valais, Switzerland

Now
46 °F

Cool.


Feels Like: 42 °F
Forecast: 30 / 44 °F
Wind: 9 mph from Northwest

Location: Aigle

Current Time: Dec 20, 2014 at 8:36:26 PM

Latest Report: Dec 20, 2014 at 8:00 PM


Visibility: N/A

Pressure: 30.46 "Hg

Humidity: 63%

Dew point: 35 °F

Location of MontheyLocation

Historic Weather in Monthey — Graph

°F

Monthey temperature yesterday

Maximum temperature yesterday: 52 °F (at 2:00 PM)
Minimum temperature yesterday: 36 °F (at 3:00 AM)
Average temperature yesterday: 44 °F

Past Weeks' High & Low Weather Summary

 TemperatureHumidityPressure
High56 °F (Dec 13, 1:00 PM)99% (Dec 19, 12:00 AM)30.48 "Hg (Dec 19, 12:00 AM)
Low29 °F (Dec 10, 5:00 AM)39% (Dec 13, 1:00 PM)29.90 "Hg (Dec 13, 2:00 AM)
Average42 °F78%30.16 "Hg
* Reported Dec 5 7:00 PM — Dec 20 7:00 PM, Monthey, Weather by CustomWeather, © 2014

Note: Actual official high and low records may vary slightly from our data, if they occured in-between our weather recording intervals... More about our weather records

Advertising

Monthey weather history for previous 24 hours

 ConditionsComfort  
Time TempWeatherWind HumidityBarometerVisibility
7:00 PM
Dec 20
48 °FPassing clouds.12 mph62%30.44 "Hg22 mi
6:00 PM48 °FCool.13 mph63%30.40 "HgN/A
5:00 PM48 °FCool.2 mph83%30.38 "HgN/A
4:00 PM49 °FPassing clouds.2 mph86%30.37 "Hg25 mi
3:00 PM49 °FCool.7 mph90%30.37 "HgN/A
2:00 PM51 °FCool.1 mph87%30.35 "HgN/A
1:00 PM51 °FLight rain. Overcast.3 mph90%30.39 "Hg6 mi
12:00 PM50 °FCool.3 mph92%30.40 "HgN/A
11:00 AM48 °FCool.1 mph95%30.41 "HgN/A
10:00 AM46 °FPartly sunny.2 mph97%30.41 "Hg22 mi
9:00 AM44 °FQuite cool.2 mph99%30.41 "HgN/A
8:00 AM44 °FQuite cool.1 mph99%30.40 "HgN/A
7:00 AM45 °FCool.3 mph97%30.40 "HgN/A
6:00 AM45 °FQuite cool.1 mph97%30.39 "HgN/A
5:00 AM45 °FCool.5 mph97%30.38 "HgN/A
4:00 AM45 °FFog.5 mph97%30.38 "Hg6 mi
3:00 AM46 °FCool.3 mph95%30.38 "HgN/A
2:00 AM45 °FCool.1 mph96%30.37 "HgN/A
1:00 AM46 °FCool.6 mph94%30.37 "HgN/A
12:00 AM48 °FCool.7 mph85%30.37 "HgN/A
11:00 PM
Dec 19
46 °FCool.6 mph92%30.36 "HgN/A
9:00 PM43 °FQuite cool.3 mph96%30.33 "HgN/A
8:00 PM43 °FQuite cool.3 mph95%30.32 "HgN/A
Weather by CustomWeather, © 2014

See weather overviewHow to use our weather pages